Tracking 30509 objects as of 21-May-2025
HD Live streaming from Space Station
objects crossing your sky now

OBJECT AC

Track OBJECT AC now!
10-day predictions


NORAD ID: 57030
Int'l Code: 2023-085AC
Perigee: 422.2 km
Apogee: 426.9 km
Inclination: 97.5 °
Period: 92.9 minutes
Semi major axis: 6795 km
RCS: Unknown
Launch date: June 15, 2023
Source: People's Republic of China (PRC)
Launch site: Taiyaun Space Center, China (TSC)
Your satellite tracking list
Your tracking list is empty




NASA's NSSDC Master Catalog

Two Line Element Set (TLE):
1 57030U 23085AC  25141.55581176  .00047517  00000-0  85248-3 0  9998
2 57030  97.4651 253.6385 0003472 335.0447  25.0635 15.49768480107419
Source of the keplerian elements: AFSPC